Temperature
21 23 24 25 25 24 23 21 21 22 22 22 22 22 23 23 23 23 23 23 23 22 22 22 22 21 21 21 20 20 20 19 19 19 18 18 18 18 17 17 17 17 16 16
22 24 25 25 25 25 25 24 23 23 22 22 22 23 23 23 23 22 22 22 22 22 22 22 22 21 21 20 20 20 19 19 19 18 18 18 17 17 17 17 16 16 16 16
20 22 23 23 24 25 25 24 23 23 22 22 21 22 22 22 22 22 22 22 22 22 22 22 21 21 20 20 19 19 19 18 18 18 18 17 17 17 16 16 16 16 16 16
18 21 22 21 22 24 24 24 23 22 22 22 22 22 23 23 23 23 22 22 22 21 21 21 20 20 20 19 19 19 18 18 17 17 17 17 16 16 16 16 16 15 15 15
17 19 21 22 23 23 23 22 22 22 22 22 22 22 21 23 24 23 23 22 22 21 21 20 20 19 19 19 18 18 18 17 17 17 16 16 16 16 15 15 15 15 15 14
17 19 20 21 22 24 22 20 21 21 21 21 21 19 20 22 22 22 22 22 21 21 20 20 19 19 19 18 18 18 17 17 17 16 16 16 15 15 15 15 15 14 14 14
17 19 19 20 22 23 21 20 21 22 22 22 21 21 22 22 22 22 21 21 21 20 20 19 19 18 18 18 18 17 17 17 16 16 16 16 15 15 15 15 14 14 14 13
16 18 18 20 20 20 19 21 22 23 23 23 23 22 22 22 21 21 21 20 20 19 19 18 18 18 18 17 17 17 16 16 16 15 15 15 15 14 14 14 14 14 13 13
16 16 18 20 20 20 21 21 22 22 23 23 22 21 21 21 21 20 20 19 19 19 18 17 17 17 17 17 16 16 16 15 15 15 15 14 14 14 14 14 14 13 13 13
16 17 18 20 20 21 21 22 22 22 22 22 21 20 20 20 20 19 19 19 18 18 18 17 17 17 17 16 16 16 15 15 15 15 14 14 14 14 13 13 13 13 13 12
16 16 18 19 20 20 21 21 21 21 21 21 21 20 19 19 19 19 18 18 18 18 17 17 16 16 16 16 15 15 15 15 14 14 14 14 13 13 13 13 13 13 12 12
15 16 16 17 19 20 20 20 21 20 20 20 20 19 19 19 18 18 18 17 17 17 17 16 16 15 15 15 15 15 15 14 14 14 13 13 13 13 13 12 12 12 12 12
17 17 18 18 19 19 20 20 20 20 19 19 19 19 19 18 18 17 17 17 17 16 16 16 15 15 15 15 15 15 15 14 14 14 13 13 13 13 13 12 12 11 11 11
18 18 17 18 18 19 19 19 19 19 18 18 18 18 18 17 17 17 17 17 16 16 15 15 15 15 15 14 14 14 14 14 14 13 13 13 13 12 12 12 12 11 11 11
17 18 17 17 17 18 18 18 18 18 17 17 18 17 17 17 16 16 16 16 16 15 15 15 15 14 14 14 14 14 14 13 13 13 13 13 12 12 12 12 11 11 11 10
17 17 17 17 17 17 17 17 17 17 17 17 17 16 16 16 16 16 15 15 15 15 15 14 14 14 14 14 14 14 13 13 13 13 13 12 12 12 12 11 11 11 11 10
17 16 16 16 16 16 16 16 16 16 16 16 16 16 16 16 15 15 15 15 15 15 15 14 14 14 14 14 14 13 13 13 13 13 12 12 12 12 11 11 11 11 10 10
17 17 17 16 16 16 16 16 16 16 16 16 15 15 15 15 15 15 14 14 14 14 14 14 14 13 13 13 13 13 13 13 13 12 12 12 12 12 11 11 11 11 10 10
16 16 16 16 16 16 16 16 15 15 15 15 15 15 15 15 14 14 14 14 14 14 13 13 13 13 13 13 13 13 13 13 13 12 12 12 12 11 11 11 11 10 10 10
16 16 16 16 15 15 15 15 15 15 15 15 14 14 14 14 14 14 14 13 13 14 13 13 13 13 13 13 13 13 13 12 12 12 12 12 11 11 11 11 10 10 10 9
15 15 15 15 15 15 15 15 14 14 14 14 14 14 14 14 13 13 13 13 13 13 13 13 13 13 13 13 12 12 12 12 12 12 12 11 11 11 11 10 10 10 10 9
15 15 14 14 14 14 14 14 14 14 14 14 14 14 13 13 13 13 13 13 13 13 13 13 13 13 13 12 12 12 12 12 12 11 11 11 11 11 10 10 10 10 9 9
14 14 14 14 14 13 13 13 13 13 13 13 13 13 13 13 13 13 13 13 12 12 12 12 12 12 12 12 12 12 12 11 11 11 11 11 11 11 10 10 10 10 9 9
13 13 13 13 13 13 13 13 13 13 13 13 13 13 12 12 12 12 12 12 12 12 12 12 12 12 12 12 12 11 11 11 11 11 11 11 11 10 10 10 10 9 9 9
12 12 12 12 12 12 12 12 12 12 12 12 12 12 12 12 12 12 12 12 12 12 11 11 11 11 11 11 11 11 11 11 11 11 10 10 10 10 10 10 9 9 9 8
12 12 12 12 12 12 12 12 12 11 11 11 11 11 11 11 12 12 12 11 11 11 11 11 11 11 11 11 11 11 11 10 10 10 10 10 10 10 9 9 9 9 8 8
11 11 11 11 11 11 11 11 11 11 11 11 11 11 11 11 11 11 11 11 11 11 11 11 11 11 11 10 10 10 10 10 10 10 10 9 9 9 9 9 8 8 8 8
Wind_Speed
5 4 4 5 7 7 7 9 9 9 9 9 7 8 8 9 10 11 10 9 9 8 7 7 7 7 7 6 6 7 7 7 5 5 5 4 4 4 4 4 5 4 5 4
1 2 1 3 6 8 8 6 7 7 5 7 6 6 7 9 11 10 10 9 9 9 8 8 8 8 7 7 6 7 7 6 6 6 6 5 5 5 5 5 5 5 5 5
2 3 3 3 6 7 6 5 8 8 9 7 7 9 10 11 12 11 9 8 8 7 8 8 8 9 8 7 7 7 7 6 6 6 7 6 6 6 6 5 5 6 5 5
3 3 3 8 4 3 4 2 4 7 9 11 11 9 7 9 11 11 10 8 7 7 6 7 8 8 9 8 8 8 8 7 6 7 7 7 7 7 6 5 6 6 6 5
4 2 4 6 4 1 4 1 2 8 9 9 10 8 4 3 9 11 10 9 7 7 8 8 9 9 10 9 8 8 8 7 7 7 8 9 8 7 6 7 7 6 5 5
5 4 5 6 8 3 6 1 3 7 11 10 10 6 4 4 7 9 10 10 9 10 10 10 9 9 10 8 8 7 7 7 7 8 8 8 8 7 6 7 7 6 6 6
5 3 5 7 8 3 5 6 4 7 9 10 7 7 8 9 9 9 10 11 11 11 10 9 9 10 10 9 8 7 7 8 8 8 8 8 8 7 7 7 8 7 7 6
5 4 6 5 5 1 6 4 3 5 7 8 9 11 11 11 11 12 11 11 12 11 10 8 9 10 10 9 8 8 9 9 8 8 7 8 8 7 7 7 7 6 6 6
6 6 6 2 1 2 4 5 3 4 6 11 13 12 12 10 11 11 11 11 10 12 11 8 8 10 11 8 8 9 9 9 9 8 7 6 7 7 6 5 6 5 5 5
3 1 1 2 2 2 4 7 5 6 8 11 12 12 12 12 11 10 10 11 10 11 11 9 8 9 10 10 9 10 10 8 8 8 8 7 6 5 5 5 5 5 5 5
2 1 2 4 2 4 7 9 9 7 7 9 13 12 12 11 11 10 9 9 9 10 10 9 9 9 9 10 10 10 9 9 8 8 8 8 7 6 5 3 3 5 4 5
4 5 3 2 0 4 7 7 7 8 7 7 10 10 10 10 9 9 10 9 10 10 10 9 9 9 9 9 10 11 9 8 7 6 6 6 7 7 12 8 9 9 7 6
3 2 3 2 2 3 5 6 6 7 8 7 7 10 10 9 7 8 9 10 10 10 10 10 10 9 8 8 9 9 9 8 7 6 6 6 6 7 6 7 11 11 9 9
4 4 4 2 2 4 5 6 8 8 7 7 8 9 9 8 8 8 8 9 10 10 9 9 9 8 8 8 9 8 8 9 8 6 6 6 5 5 6 7 5 4 5 7
2 4 5 3 3 5 5 6 7 7 7 7 8 8 9 8 8 8 8 9 10 10 9 9 9 7 7 8 9 9 8 7 7 6 6 6 6 5 5 6 6 4 3 4
4 6 6 6 5 5 6 6 7 7 8 8 7 8 8 8 8 8 9 10 10 9 9 9 8 7 7 8 8 7 6 9 9 7 7 7 6 6 6 6 5 4 4 3
6 5 5 5 6 6 6 6 7 7 7 8 8 9 9 9 9 9 8 8 8 8 8 8 8 7 7 8 8 6 6 7 10 8 7 7 7 6 6 6 6 5 3 4
6 7 7 8 7 7 6 6 7 7 7 8 9 9 9 9 9 9 8 8 8 8 6 7 7 8 7 7 6 6 6 6 6 7 6 6 6 6 6 6 6 6 4 3
5 6 7 7 7 7 7 7 6 6 7 8 9 8 7 8 8 9 9 9 9 7 5 6 10 8 7 7 8 6 6 7 6 6 6 8 7 6 6 6 6 6 5 5
5 6 7 7 7 7 7 7 7 7 7 8 8 8 8 7 8 9 9 7 5 5 6 7 7 6 6 7 8 6 6 7 7 6 6 6 6 6 6 7 7 6 6 5
7 7 8 8 7 7 6 7 8 7 6 7 8 8 8 7 8 8 8 6 3 5 7 8 6 5 5 6 7 6 6 7 6 6 6 6 6 6 6 6 7 7 6 6
7 7 8 8 8 6 5 5 7 7 7 7 8 8 9 8 7 6 5 5 5 8 6 5 4 6 7 7 5 5 6 6 6 5 5 6 6 7 7 7 7 6 6 6
6 7 7 7 7 6 5 5 6 7 7 7 7 8 8 7 6 7 5 4 5 8 6 4 7 9 9 5 4 5 6 6 6 5 5 6 6 6 7 7 6 6 6 5
5 6 6 6 6 7 6 5 5 5 6 6 6 7 8 7 5 4 5 8 9 9 6 7 10 10 8 4 5 5 5 5 5 5 5 5 5 5 5 5 5 5 5 6
4 5 5 6 6 5 6 6 6 6 6 5 6 6 5 5 6 6 6 7 9 9 6 7 9 9 5 4 5 5 4 4 5 5 5 5 5 5 5 5 5 5 5 5
4 4 3 4 4 5 5 5 5 5 6 6 5 4 5 5 7 6 6 6 7 8 5 4 4 5 4 4 5 5 4 4 5 5 5 5 6 5 5 5 6 5 5 5
4 4 4 4 3 4 5 6 6 5 5 6 6 5 6 6 6 6 7 6 5 5 4 4 4 4 4 4 4 4 4 4 5 5 5 5 5 5 5 6 5 5 6 6
Wind_Direction
204 226 193 199 218 203 183 184 184 209 202 216 202 171 154 141 137 134 131 129 135 141 142 140 138 139 141 138 138 141 144 149 149 135 126 123 119 115 108 104 103 100 97 96
293 313 238 231 231 217 209 189 183 174 210 213 184 147 132 140 140 137 140 141 144 143 142 143 142 137 132 129 132 135 136 137 126 117 115 109 105 102 97 97 93 88 86 88
238 312 37 275 243 216 214 197 173 189 205 164 133 137 149 151 142 137 138 139 143 145 142 143 139 135 130 129 123 118 118 117 115 118 116 112 113 105 101 99 94 88 84 85
118 69 211 242 247 189 180 201 179 163 164 154 150 149 144 145 141 137 138 143 143 142 135 126 123 119 116 114 114 113 110 108 108 113 117 113 108 105 106 103 96 90 86 84
117 150 281 299 305 206 164 271 197 151 151 147 133 96 73 135 138 142 144 145 138 133 127 119 116 116 113 110 109 111 113 113 112 114 113 110 109 109 107 101 92 87 86 83
122 146 217 261 289 278 116 229 261 148 145 143 127 125 188 164 127 126 129 127 122 118 114 114 117 117 111 111 110 112 114 112 110 110 111 113 112 107 102 99 96 91 80 72
139 178 250 267 300 4 131 210 228 154 148 145 148 162 159 139 128 128 126 124 122 120 120 122 121 116 113 111 111 112 108 104 103 104 107 109 107 104 104 101 95 88 79 66
144 169 244 295 4 105 198 197 151 137 134 125 123 119 124 127 128 128 126 124 124 121 117 115 117 116 114 115 115 110 106 104 102 101 106 109 108 104 103 106 100 93 85 71
173 201 234 288 120 246 159 123 107 109 120 123 124 128 129 128 127 129 130 127 123 122 119 116 115 119 121 122 118 111 105 104 100 94 90 99 108 111 107 105 105 101 97 89
114 185 198 46 48 59 95 100 102 116 118 124 128 132 130 131 129 128 127 128 127 125 125 124 121 117 122 123 118 113 108 103 99 97 89 81 83 93 104 108 113 113 110 107
107 181 47 29 44 100 92 92 90 86 96 120 127 131 133 135 135 134 130 129 131 132 131 132 127 121 123 124 122 116 111 106 100 97 99 87 74 64 85 87 128 134 136 136
202 211 168 223 256 104 105 104 109 104 89 104 121 124 125 131 134 135 135 133 130 129 131 133 130 127 128 128 129 126 122 118 115 113 108 106 101 80 56 66 79 95 110 120
181 194 154 142 75 86 109 110 103 103 108 108 106 116 118 125 131 131 133 135 138 138 137 135 133 133 135 134 133 133 135 133 130 127 124 122 119 116 100 62 62 70 84 98
138 119 88 71 88 91 95 104 103 96 100 108 113 110 113 120 127 132 139 141 136 132 132 133 133 137 141 136 133 134 136 138 138 137 135 132 130 127 126 124 109 69 54 84
117 122 131 132 109 100 106 110 107 113 114 113 117 119 123 130 137 140 139 135 130 129 133 135 136 141 139 134 136 139 139 143 143 141 139 137 134 128 123 121 122 119 98 72
123 106 108 118 125 121 122 113 114 126 129 125 126 132 137 139 139 136 136 138 139 143 144 141 144 147 140 135 134 135 139 143 144 144 143 142 142 139 136 135 135 135 135 137
133 141 136 130 137 134 133 135 131 127 126 130 138 134 128 126 127 130 135 141 140 141 143 142 145 143 139 140 139 139 139 141 137 139 145 148 149 150 150 148 148 148 152 154
161 165 158 153 148 139 130 121 119 122 127 128 128 127 130 134 138 139 136 127 120 118 126 138 141 138 135 136 138 138 140 143 146 147 148 148 148 148 148 148 150 147 139 131
148 143 146 143 140 136 128 122 119 118 121 122 123 128 134 138 136 133 129 127 130 135 144 139 134 133 136 139 137 138 140 140 139 139 139 141 141 145 149 148 147 148 146 140
115 123 129 123 120 123 124 123 120 116 119 120 121 122 124 131 133 131 127 127 143 152 143 132 129 131 134 136 130 133 139 142 143 142 141 144 146 150 151 151 151 152 150 149
119 122 123 121 118 116 121 126 128 128 127 127 133 136 135 132 130 130 131 130 132 127 125 124 127 132 133 135 129 134 140 141 143 145 147 148 148 149 149 150 153 156 158 159
118 121 122 120 116 113 117 127 131 130 128 128 131 133 132 130 126 118 117 137 138 128 124 123 127 130 132 127 130 135 138 138 139 140 142 146 148 150 152 153 157 161 163 164
112 118 123 126 126 125 123 126 129 130 134 137 139 142 142 139 138 137 134 136 131 126 123 126 131 127 126 124 130 133 136 138 141 145 150 152 151 152 155 156 160 162 160 160
110 117 121 124 121 121 124 127 124 124 124 124 127 129 131 126 112 111 127 134 134 128 126 134 133 129 124 124 127 129 133 138 143 147 146 144 143 145 147 151 154 155 157 156
109 114 118 121 124 134 137 131 120 118 117 118 116 114 119 126 133 134 129 133 135 128 126 135 134 130 127 128 132 130 133 141 143 140 136 136 139 139 140 142 146 148 151 156
116 127 133 139 142 142 142 137 134 135 134 132 127 122 121 121 124 128 127 132 133 129 129 134 137 131 129 128 127 128 132 133 130 129 133 135 133 132 134 137 139 144 149 155
106 115 117 113 117 130 135 136 137 138 140 138 132 130 130 129 129 132 130 131 134 134 135 136 138 140 139 135 128 127 126 125 124 125 128 132 135 137 141 141 143 147 152 159
Height
1488 1483 1483 1485 1486 1488 1497 1504 1513 1509 1506 1499 1496 1494 1495 1497 1500 1503 1505 1507 1510 1512 1515 1517 1519 1521 1523 1525 1527 1527 1529 1530 1531 1532 1534 1534 1535 1536 1536 1537 1537 1537 1538 1539
1487 1480 1480 1483 1481 1482 1486 1490 1496 1497 1499 1491 1491 1492 1494 1497 1499 1502 1505 1507 1509 1511 1513 1516 1518 1520 1522 1524 1525 1526 1527 1527 1529 1531 1532 1532 1534 1534 1535 1536 1536 1537 1537 1538
1498 1487 1485 1493 1482 1480 1482 1481 1486 1495 1493 1488 1490 1492 1493 1495 1497 1501 1504 1507 1509 1511 1512 1514 1517 1519 1520 1522 1524 1525 1525 1526 1527 1529 1530 1531 1533 1534 1534 1535 1536 1536 1537 1537
1499 1496 1506 1492 1474 1473 1477 1478 1478 1480 1483 1484 1487 1490 1492 1494 1496 1499 1503 1506 1508 1510 1512 1514 1516 1518 1520 1521 1523 1524 1525 1525 1527 1528 1529 1531 1532 1533 1533 1534 1535 1536 1537 1537
1504 1505 1498 1483 1473 1473 1478 1484 1477 1479 1481 1483 1486 1490 1494 1495 1496 1498 1502 1505 1508 1510 1512 1514 1517 1518 1520 1521 1522 1523 1525 1526 1527 1529 1530 1531 1532 1533 1534 1534 1535 1536 1537 1538
1501 1503 1506 1489 1472 1468 1474 1489 1478 1477 1479 1482 1485 1495 1498 1497 1498 1500 1502 1505 1508 1510 1512 1515 1517 1519 1520 1521 1522 1523 1525 1526 1528 1529 1530 1531 1532 1533 1534 1535 1536 1537 1537 1538
1498 1500 1494 1478 1471 1468 1488 1490 1478 1476 1478 1480 1483 1487 1492 1495 1498 1501 1503 1506 1508 1511 1513 1515 1517 1518 1520 1521 1523 1524 1526 1527 1528 1530 1531 1532 1533 1534 1535 1536 1537 1538 1538 1539
1497 1501 1498 1474 1472 1477 1478 1474 1475 1476 1478 1479 1482 1486 1491 1494 1497 1500 1503 1506 1508 1511 1513 1515 1517 1519 1520 1522 1524 1525 1527 1528 1529 1531 1532 1533 1534 1535 1536 1537 1538 1539 1540 1540
1487 1489 1479 1474 1474 1473 1472 1472 1474 1476 1478 1479 1483 1486 1491 1494 1498 1501 1504 1506 1509 1511 1513 1516 1518 1519 1520 1522 1524 1526 1528 1529 1530 1532 1533 1535 1536 1536 1538 1539 1540 1540 1541 1541
1481 1479 1476 1475 1474 1474 1474 1473 1475 1477 1479 1480 1483 1487 1491 1494 1498 1501 1504 1507 1509 1512 1514 1516 1518 1520 1521 1523 1525 1527 1528 1530 1531 1533 1534 1535 1537 1538 1539 1540 1541 1542 1542 1542
1480 1478 1476 1476 1476 1475 1475 1475 1477 1479 1481 1482 1484 1488 1491 1494 1498 1501 1505 1508 1510 1512 1514 1517 1519 1521 1522 1524 1526 1527 1529 1531 1532 1534 1535 1536 1537 1539 1540 1541 1542 1543 1543 1544
1481 1477 1478 1478 1477 1476 1476 1477 1478 1480 1483 1485 1486 1489 1492 1495 1499 1502 1504 1507 1510 1513 1515 1517 1519 1521 1523 1525 1527 1528 1530 1532 1533 1535 1536 1537 1538 1539 1541 1542 1543 1544 1545 1545
1474 1475 1476 1476 1476 1477 1477 1478 1479 1480 1482 1486 1488 1490 1493 1496 1500 1503 1505 1507 1510 1512 1515 1517 1519 1521 1523 1525 1527 1529 1530 1532 1534 1535 1537 1538 1539 1540 1541 1543 1544 1545 1546 1547
1473 1475 1475 1476 1477 1477 1478 1478 1479 1481 1484 1487 1489 1491 1494 1497 1500 1503 1506 1508 1510 1513 1515 1518 1519 1521 1523 1526 1528 1530 1531 1533 1534 1536 1537 1539 1540 1541 1542 1543 1544 1546 1547 1548
1473 1474 1474 1476 1478 1478 1479 1480 1480 1482 1485 1488 1490 1492 1495 1498 1500 1503 1506 1508 1510 1513 1515 1517 1520 1522 1524 1526 1528 1530 1531 1533 1535 1536 1538 1539 1541 1542 1543 1544 1545 1546 1547 1549
1472 1472 1473 1476 1477 1478 1480 1480 1480 1482 1485 1488 1490 1493 1495 1498 1501 1503 1505 1508 1510 1512 1514 1517 1519 1522 1524 1526 1528 1530 1532 1533 1535 1537 1538 1539 1541 1542 1544 1545 1546 1547 1548 1549
1471 1472 1473 1475 1477 1479 1480 1481 1482 1483 1485 1488 1490 1493 1495 1498 1500 1503 1505 1508 1510 1512 1514 1517 1519 1521 1524 1526 1528 1530 1532 1533 1535 1537 1538 1540 1541 1543 1544 1545 1546 1548 1549 1550
1469 1471 1473 1474 1476 1478 1481 1482 1483 1485 1487 1489 1491 1493 1496 1498 1500 1502 1505 1507 1510 1512 1515 1517 1519 1522 1523 1526 1528 1530 1532 1533 1535 1536 1538 1540 1541 1543 1544 1545 1547 1548 1549 1551
1468 1470 1473 1474 1477 1479 1480 1482 1484 1486 1488 1490 1492 1494 1496 1498 1500 1503 1505 1507 1510 1512 1515 1517 1519 1522 1524 1526 1528 1530 1531 1533 1535 1536 1538 1539 1541 1542 1544 1545 1546 1548 1549 1551
1468 1469 1471 1473 1476 1479 1481 1482 1484 1486 1488 1490 1492 1494 1497 1499 1501 1503 1505 1508 1510 1512 1515 1517 1520 1522 1524 1526 1528 1529 1531 1533 1534 1536 1537 1539 1540 1542 1543 1545 1546 1548 1549 1551
1468 1470 1472 1473 1476 1479 1481 1483 1485 1487 1489 1491 1493 1495 1497 1499 1501 1504 1506 1508 1511 1513 1515 1517 1520 1522 1524 1526 1528 1529 1531 1532 1534 1535 1537 1538 1540 1541 1543 1544 1546 1547 1549 1550
1467 1469 1472 1474 1476 1478 1481 1484 1485 1487 1489 1491 1493 1495 1497 1499 1501 1504 1506 1508 1511 1513 1515 1517 1520 1522 1524 1525 1527 1529 1530 1532 1533 1535 1536 1538 1539 1541 1542 1544 1545 1547 1548 1549
1468 1470 1472 1474 1476 1479 1482 1484 1485 1487 1488 1490 1492 1494 1496 1499 1501 1503 1506 1509 1511 1513 1515 1518 1519 1521 1523 1525 1527 1528 1530 1531 1533 1535 1536 1538 1539 1540 1542 1543 1544 1546 1547 1548
1468 1470 1472 1475 1477 1479 1481 1483 1485 1487 1489 1490 1492 1495 1497 1499 1502 1504 1507 1509 1511 1514 1516 1518 1519 1521 1523 1525 1526 1528 1529 1531 1533 1534 1536 1537 1539 1540 1541 1542 1543 1545 1546 1547
1469 1470 1472 1475 1477 1479 1481 1483 1485 1487 1489 1491 1493 1495 1498 1500 1502 1505 1507 1510 1512 1514 1516 1518 1519 1521 1523 1524 1526 1528 1529 1531 1532 1534 1535 1537 1538 1539 1540 1541 1542 1543 1544 1545
1469 1471 1473 1475 1477 1479 1481 1483 1485 1487 1489 1491 1494 1496 1498 1501 1503 1506 1508 1510 1512 1514 1516 1518 1519 1521 1523 1524 1526 1527 1529 1530 1532 1533 1535 1536 1537 1538 1539 1540 1541 1542 1543 1544
1470 1472 1473 1475 1477 1478 1480 1483 1485 1487 1489 1491 1494 1496 1499 1502 1504 1506 1508 1510 1512 1514 1516 1518 1520 1521 1523 1524 1526 1527 1529 1530 1532 1533 1534 1535 1536 1537 1538 1539 1540 1541 1542 1542